[[{"header":{"parameterUnit":"m.s-1","parameterCategory":2,"la1":30.2991,"la2":30.254,"lo1":-89.0895,"lo2":-89.0444,"dx":0.0017,"dy":0.0017,"nx":28,"ny":28,"refTime":"2022-12-03T09:00:00:Z","depth":"0","parameterNumber":2,"parameterNumberName":"U-component_of_CURRENTS"},"data":[0,0,0,0,0,0,0,0,0,0,0,0,0,0,0,0,0,0,0,0,0,0,0,0,0,0,0,0,0,0,0,0,0,0,0,0,0,0,0,0,0,0,0,0,0,0,0,0,0,0,0,0,0,0,0,0,0,0,0.0324,0.0324,0,0.0279,0.0279,0.0278,0.0289,0.0289,0.029,0.029,0.0281,0.0281,0.028,0,0,0,0,0,0,0,0,0,0,0,0,0,0.0386,0.0385,0.0324,0.0324,0.0323,0.0279,0.0279,0.0278,0.0288,0.0289,0.029,0.0291,0.0282,0.0281,0.028,0,0,0,0,0,0,0,0,0,0,0,0,0,0.0354,0.0385,0.0324,0.032,0.0319,0.0279,0.0279,0.0278,0.0288,0.0289,0.029,0.0291,0.0282,0.0281,0.028,0.0254,0,0,0.0276,0.0276,0,0,0,0,0,0,0,0,0.0356,0.0352,0.0322,0.0321,0.0319,0.0288,0.0297,0.0271,0.0288,0.0303,0.029,0.0291,0.0284,0.0283,0.0276,0.0254,0.0254,0.0276,0.0275,0.0275,0.0274,0,0,0,0,0,0,0,0.0358,0.0354,0.0309,0.0321,0.0319,0.0309,0.0306,0.0292,0.0292,0.0302,0.0302,0.0292,0.0285,0.0277,0.0276,0.0253,0.0276,0.0275,0.0274,0.0274,0.0217,0.0216,0,0,0,0,0,0,0.0359,0.0356,0.0311,0.0308,0.0337,0.0307,0.0304,0.0299,0.0291,0.029,0.0291,0.0292,0.0279,0.0277,0.0276,0.0236,0.0275,0.0274,0.0273,0.0218,0.0217,0.0216,0,0,0,0,0,0,0.036,0.0355,0.0312,0.0328,0.0322,0.0305,0.03,0.0298,0.0291,0.0282,0.0283,0.0286,0.0279,0.0277,0.0261,0.0236,0.0273,0.0272,0.0219,0.0218,0.0217,0.0162,0,0,0,0,0,0,0.0362,0.0356,0.0356,0.0329,0.0321,0.0283,0.0298,0.0296,0.0282,0.0283,0.0278,0.0278,0.028,0.0263,0.026,0.0235,0.0271,0.022,0.0218,0.0217,0.0165,0.016,0.0155,0,0,0,0,0,0.0365,0.0355,0.0357,0.0351,0.032,0.0282,0.0277,0.027,0.0281,0.0269,0.027,0.0278,0.0252,0.0261,0.0258,0.0232,0.0221,0.0219,0.0217,0.0168,0.0161,0.0155,0,0,0,0,0,0,0.0371,0.0354,0.0355,0.0339,0.0311,0.0283,0.0266,0.0266,0.0256,0.0262,0.0265,0.0264,0.0244,0.0245,0.0256,0.0213,0.0238,0.0236,0.0202,0.0195,0.019,0.0172,0.027,0,0,0,0,0,0.0374,0.0373,0.0341,0.0329,0.031,0.0289,0.0275,0.027,0.0255,0.0252,0.0245,0.0241,0.0232,0.0221,0.0216,0.0185,0.0191,0.0169,0.0163,0.0159,0.0143,0.0147,0.0141,0.021,0.021,0.021,0,0,0.0372,0.0363,0.0361,0.0332,0.0308,0.0272,0.0283,0.0255,0.0226,0.0251,0.0215,0.0225,0.0223,0.0194,0.0184,0.0191,0.014,0.0157,0.0153,0.0139,0.0145,0.0138,0.0132,0.0209,0.0209,0.021,0,0,0.0356,0.0354,0.034,0.0314,0.028,0.0263,0.0253,0.022,0.0205,0.0174,0.0189,0.0183,0.0159,0.0152,0.0146,0.0107,0.012,0.0107,0.0053,0.0058,0.0052,0.0047,0.0037,0.0031,0.0095,0.0095,0.0095,0,0.0355,0.0335,0.0327,0.0294,0.0268,0.0255,0.0217,0.0189,0.016,0.0135,0.0156,0.0127,0.0136,0.0094,0.0084,0.0093,0.0094,0.0077,0.005,0.0045,0.0041,0.0032,0.0027,0.0092,0.0093,0.0093,0.0093,0,0.0327,0.0301,0.0281,0.0245,0.0214,0.0181,0.0137,0.0107,0.0095,0.007,0.0033,0.0048,0.0029,0.0033,0.0044,0.001,0.002,0.0051,0.0065,0.0031,0.0024,0.0019,0.0088,0.0089,0.009,0.0091,0,0,0.0348,0.0278,0.0273,0.0239,0.0188,0.0158,0.0096,0.0033,-0.0013,-0.003,-0.0084,-0.0087,-0.0074,-0.0079,-0.0058,-0.0059,-0.008,-0.0026,-0.0024,-0.0039,-0.0086,-0.0119,-0.0127,-0.0052,-0.0053,-0.0053,-0.0082,0,0.0328,0.0273,0.0238,0.0169,0.013,0.0084,0.0025,-0.003,-0.0071,-0.0128,-0.0131,-0.016,-0.0121,-0.0119,-0.0119,-0.0084,-0.0093,-0.0076,-0.0048,-0.0048,-0.0076,-0.0134,-0.0148,-0.0179,-0.0086,-0.0087,-0.0087,0,0.0321,0.0282,0.0228,0.0128,0.0103,0.0064,-0.0026,-0.0082,-0.0169,-0.0205,-0.0241,-0.0246,-0.0263,-0.0207,-0.0193,-0.0184,-0.0149,-0.0119,-0.0118,-0.0137,-0.0091,-0.0127,-0.019,-0.0146,-0.0094,-0.0093,-0.0093,0,0.0372,0.027,0.0235,0.0206,0.01,0.006,0.0004,-0.009,-0.0156,-0.024,-0.0292,-0.0314,-0.0319,-0.0284,-0.0238,-0.0213,-0.0217,-0.0167,-0.0174,-0.0175,-0.0178,-0.0179,-0.0199,-0.0164,-0.0164,-0.0164,-0.0164,0,0.0382,0.0342,0.0258,0.0241,0.0174,0.0091,0.0009,-0.006,-0.0169,-0.0274,-0.031,-0.0386,-0.0336,-0.0343,-0.028,-0.0261,-0.0251,-0.021,-0.0194,-0.0199,-0.0201,-0.0153,-0.0117,-0.0165,-0.0165,-0.0164,-0.0164,0,0.0448,0.0394,0.0348,0.0247,0.0207,0.0175,0.0025,-0.0049,-0.0155,-0.029,-0.032,-0.0427,-0.045,-0.0408,-0.0359,-0.0324,-0.0281,-0.0274,-0.0297,-0.0285,-0.0255,-0.0221,-0.026,-0.0279,-0.0297,-0.0299,-0.03,0,0.0467,0.0465,0.0392,0.0364,0.032,0.0234,0.0158,0.0004,-0.0113,-0.0334,-0.0412,-0.0483,-0.0564,-0.0524,-0.0465,-0.0396,-0.0329,-0.0366,-0.0323,-0.0288,-0.0238,-0.0224,-0.0236,-0.0344,-0.0346,-0.0347,-0.0348,0,0.0514,0.0522,0.0497,0.046,0.0393,0.0258,0.0112,0.0022,-0.0203,-0.0331,-0.0529,-0.0599,-0.0639,-0.0576,-0.0499,-0.0479,-0.0368,-0.0387,-0.0336,-0.0285,-0.0286,-0.0285,-0.0294,-0.0357,-0.0356,-0.0355,-0.0355,-0.0354,0.0565,0.0585,0.0583,0.0545,0.0447,0.0274,0.0212,0.0007,-0.017,-0.0368,-0.0512,-0.0537,-0.0457,-0.0372,-0.0466,-0.0465,-0.0447,-0.0394,-0.036,-0.0353,-0.037,-0.0423,-0.0474,-0.0473,-0.0473,-0.0473,-0.0473,0,0.0603,0.0638,0.0638,0.0571,0.0485,0.0389,0.0174,0.0114,-0.0052,-0.0233,-0.0358,-0.0183,-0.0185,-0.0193,-0.0199,-0.0317,-0.0422,-0.037,-0.033,-0.0346,-0.0374,-0.0375,-0.0425,-0.0426,-0.0426,-0.0426,-0.0426,-0.0426,0.0616,0.0666,0.0687,0.0614,0.0555,0.0437,0.0341,0.0257,0.0161,0.0116,0.0176,0.0173,0.0306,0.0329,0.0115,-0.0079,-0.0177,-0.029,-0.0279,-0.0248,-0.0246,-0.0244,-0.0237,-0.0258,-0.0258,-0.0277,-0.0276,-0.0276]},{"header":{"parameterUnit":"m.s-1","parameterCategory":2,"la1":30.2991,"la2":30.254,"lo1":-89.0895,"lo2":-89.0444,"dx":0.0017,"dy":0.0017,"nx":28,"ny":28,"refTime":"2022-12-03T09:00:00:Z","depth":"0","parameterNumber":3,"parameterNumberName":"V-component_of_CURRENTS"},"data":[0,0,0,0,0,0,0,0,0,0,0,0,0,0,0,0,0,0,0,0,0,0,0,0,0,0,0,0,0,0,0,0,0,0,0,0,0,0,0,0,0,0,0,0,0,0,0,0,0,0,0,0,0,0,0,0,0,0,0.0562,0.0561,0,0.0513,0.0512,0.0512,0.0507,0.0507,0.0507,0.0507,0.0455,0.0453,0.0452,0,0,0,0,0,0,0,0,0,0,0,0,0,0.0677,0.0676,0.0562,0.0561,0.056,0.0513,0.0512,0.0512,0.0507,0.0507,0.0507,0.0507,0.0455,0.0453,0.0452,0,0,0,0,0,0,0,0,0,0,0,0,0,0.0631,0.0675,0.0562,0.055,0.0548,0.0513,0.0512,0.0512,0.0507,0.0507,0.0507,0.0507,0.0456,0.0454,0.0451,0.043,0,0,0.0444,0.0443,0,0,0,0,0,0,0,0,0.0633,0.0627,0.0552,0.055,0.0548,0.0513,0.0533,0.0483,0.0506,0.0526,0.0507,0.0508,0.0472,0.0468,0.0463,0.0428,0.0425,0.0444,0.0442,0.0441,0.0441,0,0,0,0,0,0,0,0.0636,0.0629,0.0546,0.0551,0.0549,0.0555,0.0549,0.0524,0.05,0.0524,0.0523,0.0512,0.0471,0.0465,0.0461,0.0425,0.0444,0.0442,0.044,0.0439,0.0382,0.0382,0,0,0,0,0,0,0.0634,0.0632,0.0547,0.0544,0.0589,0.0552,0.0545,0.0527,0.05,0.0495,0.0512,0.0512,0.0469,0.0464,0.0459,0.0428,0.0441,0.0439,0.0438,0.0382,0.0382,0.0382,0,0,0,0,0,0,0.0637,0.0627,0.0549,0.0585,0.0575,0.0549,0.0529,0.0526,0.0517,0.049,0.0486,0.0506,0.0469,0.0463,0.0444,0.0426,0.0438,0.0436,0.0383,0.0382,0.0382,0.0367,0,0,0,0,0,0,0.064,0.0628,0.0617,0.0584,0.0573,0.0522,0.0528,0.0524,0.0508,0.0508,0.0484,0.0479,0.0469,0.0448,0.0442,0.0423,0.0434,0.0383,0.0382,0.0382,0.0368,0.0367,0.0366,0,0,0,0,0,0.0644,0.062,0.0617,0.0607,0.0557,0.0521,0.0516,0.0502,0.0508,0.0497,0.0492,0.048,0.0443,0.0446,0.0439,0.0418,0.0383,0.0383,0.0382,0.0368,0.0367,0.0366,0,0,0,0,0,0,0.0665,0.0616,0.0612,0.0575,0.0549,0.0519,0.0502,0.0499,0.0487,0.0488,0.0477,0.0471,0.045,0.044,0.0444,0.0405,0.0411,0.0409,0.0403,0.0401,0.04,0.0396,0.0432,0,0,0,0,0,0.0664,0.0631,0.0596,0.0566,0.0551,0.053,0.0515,0.0505,0.0487,0.0482,0.0469,0.0457,0.0443,0.0428,0.0414,0.0387,0.0386,0.0372,0.0371,0.037,0.0363,0.036,0.0358,0.0382,0.0382,0.0382,0,0,0.0661,0.0632,0.0612,0.0569,0.0547,0.0517,0.0522,0.0492,0.0474,0.0477,0.0453,0.0451,0.0437,0.0413,0.0402,0.0401,0.0363,0.0369,0.0368,0.0362,0.036,0.0357,0.0355,0.0382,0.0382,0.0382,0,0,0.0633,0.0615,0.0576,0.0553,0.0516,0.0506,0.0497,0.0467,0.0461,0.0439,0.0443,0.0436,0.0405,0.0396,0.0387,0.0371,0.0362,0.0364,0.0343,0.0341,0.0339,0.0337,0.0333,0.0331,0.0357,0.0357,0.0357,0,0.064,0.058,0.0562,0.0524,0.0504,0.0499,0.0465,0.0454,0.0428,0.0422,0.0428,0.0406,0.0396,0.0373,0.0368,0.0366,0.0364,0.0348,0.0339,0.0337,0.0336,0.0332,0.0329,0.0356,0.0356,0.0356,0.0357,0,0.0581,0.0538,0.0513,0.0466,0.045,0.0416,0.0401,0.0392,0.0393,0.0385,0.037,0.0369,0.0358,0.0353,0.0351,0.0331,0.0334,0.0343,0.0341,0.0332,0.0329,0.0327,0.0355,0.0355,0.0356,0.0356,0,0,0.0593,0.049,0.0483,0.045,0.0416,0.0396,0.0376,0.0353,0.0346,0.0334,0.0326,0.0308,0.0321,0.0313,0.0317,0.0309,0.0297,0.0315,0.0315,0.0308,0.0288,0.0307,0.0307,0.0304,0.0303,0.0303,0.029,0,0.0557,0.0465,0.0433,0.0372,0.0331,0.0329,0.0316,0.0305,0.0305,0.0301,0.0304,0.03,0.0301,0.0307,0.0297,0.0305,0.0291,0.0299,0.03,0.03,0.0316,0.0305,0.0328,0.0321,0.0289,0.0288,0.0288,0,0.0525,0.0461,0.0383,0.0321,0.0307,0.0285,0.0279,0.026,0.0261,0.0266,0.0266,0.028,0.0273,0.0284,0.0274,0.0279,0.0275,0.0278,0.0278,0.0298,0.0316,0.0325,0.0319,0.033,0.0285,0.0285,0.0285,0,0.0549,0.0441,0.0376,0.0351,0.0284,0.0269,0.0251,0.025,0.0238,0.025,0.0262,0.0257,0.0271,0.0262,0.0271,0.0271,0.0266,0.027,0.0278,0.0279,0.03,0.0304,0.0301,0.0251,0.0251,0.0251,0.0251,0,0.0536,0.049,0.0375,0.0344,0.0292,0.0262,0.0234,0.023,0.0224,0.0209,0.0245,0.0257,0.0267,0.0273,0.0267,0.0271,0.0262,0.0269,0.0276,0.0296,0.03,0.0312,0.0324,0.0251,0.0251,0.0251,0.0251,0,0.0584,0.0499,0.0424,0.0328,0.0298,0.0271,0.021,0.0188,0.0205,0.0193,0.0201,0.0248,0.0272,0.0281,0.0279,0.0275,0.0306,0.0272,0.0296,0.0306,0.0326,0.0336,0.0349,0.0453,0.0276,0.0276,0.0276,0,0.0595,0.0554,0.0425,0.037,0.0321,0.0261,0.0216,0.0185,0.0147,0.0186,0.0171,0.0228,0.0291,0.032,0.0289,0.0286,0.033,0.0311,0.0313,0.0325,0.0342,0.0351,0.0441,0.0332,0.0333,0.0334,0.0334,0,0.0631,0.0585,0.0517,0.0393,0.0316,0.02,0.0122,0.0099,0.0067,0.011,0.0165,0.0251,0.0308,0.0363,0.0363,0.0345,0.037,0.0324,0.033,0.0378,0.0394,0.05,0.034,0.034,0.0339,0.0339,0.0339,0.0338,0.0668,0.0634,0.0526,0.042,0.0284,0.0115,0.0058,-0.0005,-0.0031,0.004,0.0183,0.0411,0.0497,0.0519,0.0439,0.0365,0.0397,0.0389,0.0397,0.0402,0.0514,0.0366,0.0381,0.0381,0.0381,0.038,0.038,0,0.0697,0.0643,0.0551,0.0367,0.0188,0.0119,-0.0032,-0.0071,-0.0088,0.0093,0.0264,0.0714,0.0677,0.0657,0.052,0.0463,0.0477,0.0461,0.0475,0.0568,0.0418,0.0432,0.0468,0.0468,0.0468,0.0468,0.0468,0.0468,0.0705,0.064,0.0586,0.0307,0.016,-0.0041,-0.0123,-0.0142,-0.0051,0.0294,0.0691,0.1043,0.1238,0.0786,0.0567,0.0527,0.0609,0.054,0.0633,0.0488,0.0482,0.0476,0.0491,0.0538,0.0538,0.0818,0.082,0.0821]}],[{"header":{"parameterUnit":"m.s-1","parameterCategory":2,"la1":30.2991,"la2":30.254,"lo1":-89.0895,"lo2":-89.0444,"dx":0.0017,"dy":0.0017,"nx":28,"ny":28,"refTime":"2022-12-03T09:00:00:Z","depth":"2","parameterNumber":2,"parameterNumberName":"U-component_of_CURRENTS"},"data":[0,0,0,0,0,0,0,0,0,0,0,0,0,0,0,0,0,0,0,0,0,0,0,0,0,0,0,0,0,0,0,0,0,0,0,0,0,0,0,0,0,0,0,0,0,0,0,0,0,0,0,0,0,0,0,0,0,0,-0.2265,-0.2264,0,-0.2171,-0.217,-0.2169,-0.2105,-0.2105,-0.2104,-0.2103,-0.2009,-0.2007,-0.2005,0,0,0,0,0,0,0,0,0,0,0,0,0,-0.2352,-0.2351,-0.2265,-0.2264,-0.2262,-0.2172,-0.217,-0.2169,-0.2105,-0.2104,-0.2104,-0.2103,-0.201,-0.2007,-0.2005,0,0,0,0,0,0,0,0,0,0,0,0,0,-0.2293,-0.2351,-0.2265,-0.2219,-0.2214,-0.2172,-0.217,-0.2169,-0.2105,-0.2104,-0.2104,-0.2103,-0.201,-0.2007,-0.2004,-0.2002,0,0,-0.1995,-0.1994,0,0,0,0,0,0,0,0,-0.2296,-0.229,-0.2227,-0.2222,-0.2216,-0.2148,-0.2166,-0.2113,-0.2105,-0.2147,-0.2103,-0.2103,-0.2056,-0.2049,-0.2034,-0.1998,-0.1994,-0.1995,-0.1993,-0.1992,-0.1991,0,0,0,0,0,0,0,-0.23,-0.2293,-0.2229,-0.2226,-0.2219,-0.2191,-0.2182,-0.2156,-0.2108,-0.2144,-0.2139,-0.2127,-0.2053,-0.2037,-0.2031,-0.1992,-0.1995,-0.1992,-0.199,-0.1989,-0.1931,-0.1931,0,0,0,0,0,0,-0.2313,-0.2297,-0.2232,-0.2226,-0.2254,-0.219,-0.218,-0.2172,-0.2108,-0.2097,-0.2128,-0.2125,-0.2043,-0.2035,-0.2028,-0.1984,-0.1992,-0.1989,-0.1987,-0.193,-0.1931,-0.1931,0,0,0,0,0,0,-0.2315,-0.2308,-0.2235,-0.2258,-0.2247,-0.2189,-0.218,-0.217,-0.2142,-0.2096,-0.2085,-0.2109,-0.2042,-0.2032,-0.1999,-0.1982,-0.1988,-0.1985,-0.193,-0.193,-0.1931,-0.1922,0,0,0,0,0,0,-0.2318,-0.231,-0.231,-0.226,-0.2246,-0.2215,-0.2181,-0.2169,-0.2137,-0.2131,-0.2077,-0.2067,-0.204,-0.2004,-0.1996,-0.1978,-0.1982,-0.193,-0.193,-0.1931,-0.1922,-0.1922,-0.1922,0,0,0,0,0,-0.2322,-0.2332,-0.2311,-0.2302,-0.2248,-0.2216,-0.2207,-0.2163,-0.2137,-0.2133,-0.2091,-0.2069,-0.2002,-0.2002,-0.1992,-0.1973,-0.1929,-0.193,-0.1931,-0.1922,-0.1922,-0.1922,0,0,0,0,0,0,-0.2369,-0.2324,-0.23,-0.2295,-0.2258,-0.2205,-0.2196,-0.2161,-0.2124,-0.2116,-0.2068,-0.2056,-0.2025,-0.2007,-0.2008,-0.1961,-0.1964,-0.1962,-0.196,-0.196,-0.196,-0.1952,-0.198,0,0,0,0,0,-0.238,-0.2374,-0.2323,-0.2318,-0.2301,-0.2245,-0.2225,-0.2195,-0.2154,-0.2135,-0.2094,-0.2056,-0.2023,-0.1998,-0.1976,-0.1945,-0.1901,-0.193,-0.193,-0.193,-0.192,-0.186,-0.1853,-0.1933,-0.1933,-0.1933,0,0,-0.2395,-0.2371,-0.2365,-0.2328,-0.2293,-0.2264,-0.2232,-0.2205,-0.2172,-0.2133,-0.2083,-0.2059,-0.2019,-0.1985,-0.1969,-0.1962,-0.188,-0.1931,-0.193,-0.192,-0.186,-0.1851,-0.1844,-0.1933,-0.1933,-0.1933,0,0,-0.2415,-0.24,-0.2392,-0.2364,-0.2318,-0.2285,-0.2276,-0.222,-0.2188,-0.2145,-0.2108,-0.207,-0.2021,-0.1981,-0.1955,-0.1944,-0.1891,-0.1944,-0.192,-0.1863,-0.1855,-0.1847,-0.1756,-0.1741,-0.1933,-0.1933,-0.1933,0,-0.2434,-0.2406,-0.2386,-0.2365,-0.233,-0.2293,-0.2259,-0.2232,-0.217,-0.2131,-0.2133,-0.2035,-0.2013,-0.1941,-0.1943,-0.194,-0.189,-0.1919,-0.1859,-0.1852,-0.1844,-0.1753,-0.1736,-0.1932,-0.1932,-0.1932,-0.1933,0,-0.2433,-0.2406,-0.2401,-0.2354,-0.2326,-0.2298,-0.2248,-0.2217,-0.2175,-0.213,-0.2061,-0.2028,-0.1959,-0.1956,-0.1944,-0.1878,-0.1852,-0.1872,-0.1853,-0.1835,-0.174,-0.1723,-0.1932,-0.1932,-0.1932,-0.1932,0,0,-0.2466,-0.241,-0.24,-0.2359,-0.231,-0.2277,-0.2236,-0.2164,-0.2108,-0.2072,-0.1984,-0.1951,-0.1925,-0.1896,-0.1874,-0.183,-0.1739,-0.183,-0.1827,-0.1727,-0.1576,-0.1514,-0.1488,-0.1747,-0.1744,-0.1742,-0.1521,0,-0.2454,-0.2407,-0.238,-0.2316,-0.2273,-0.2228,-0.2183,-0.2123,-0.2068,-0.199,-0.1943,-0.1876,-0.1904,-0.1863,-0.1825,-0.1764,-0.1697,-0.1795,-0.1619,-0.1613,-0.1551,-0.1468,-0.1439,-0.1236,-0.1503,-0.15,-0.1498,0,-0.2436,-0.2401,-0.234,-0.2256,-0.2233,-0.2199,-0.2093,-0.2052,-0.1958,-0.1913,-0.1844,-0.1806,-0.1726,-0.1766,-0.1631,-0.169,-0.163,-0.1588,-0.1579,-0.1512,-0.1519,-0.1305,-0.1194,-0.1469,-0.1471,-0.1473,-0.1475,0,-0.2426,-0.2358,-0.2303,-0.2276,-0.2196,-0.2151,-0.2107,-0.202,-0.1959,-0.1859,-0.1799,-0.1712,-0.1645,-0.158,-0.15,-0.1556,-0.1339,-0.1402,-0.1276,-0.127,-0.1205,-0.1197,-0.1293,-0.1293,-0.1293,-0.1294,-0.1295,0,-0.24,-0.2347,-0.2293,-0.2258,-0.2174,-0.2134,-0.204,-0.1985,-0.1894,-0.1807,-0.1763,-0.1671,-0.1602,-0.1478,-0.1433,-0.1271,-0.1274,-0.1234,-0.1201,-0.1199,-0.1194,-0.1384,-0.1398,-0.1286,-0.1287,-0.1289,-0.129,0,-0.2365,-0.2343,-0.2267,-0.2192,-0.2163,-0.21,-0.2004,-0.1937,-0.1873,-0.1754,-0.1719,-0.1602,-0.1447,-0.1344,-0.1195,-0.1159,-0.1033,-0.0976,-0.0958,-0.0928,-0.1018,-0.1034,-0.0809,-0.0805,-0.0801,-0.0798,-0.0796,0,-0.2332,-0.2295,-0.2216,-0.2177,-0.2137,-0.2054,-0.1992,-0.192,-0.1853,-0.1708,-0.1643,-0.147,-0.1358,-0.1092,-0.0956,-0.079,-0.0873,-0.0677,-0.0798,-0.0973,-0.0964,-0.0987,-0.1007,-0.0691,-0.0687,-0.0685,-0.0683,0,-0.2251,-0.2235,-0.2179,-0.2109,-0.2046,-0.1973,-0.1892,-0.1831,-0.1739,-0.167,-0.1541,-0.145,-0.118,-0.0972,-0.0735,-0.0664,-0.071,-0.062,-0.0761,-0.0839,-0.085,-0.0846,-0.0872,-0.066,-0.0662,-0.0664,-0.0665,-0.0666,-0.2182,-0.2127,-0.2074,-0.1988,-0.194,-0.1869,-0.1772,-0.1731,-0.1634,-0.1459,-0.1438,-0.1241,-0.1059,-0.068,-0.0552,-0.0435,-0.0516,-0.051,-0.0523,-0.0537,-0.0584,-0.0591,-0.0357,-0.0358,-0.0358,-0.0359,-0.0359,0,-0.206,-0.2009,-0.1949,-0.1838,-0.1757,-0.1768,-0.1669,-0.1577,-0.1458,-0.1324,-0.1212,-0.0909,-0.0735,-0.0554,-0.0352,-0.0284,-0.0337,-0.0265,-0.036,-0.0383,-0.0403,-0.0449,-0.0183,-0.0182,-0.0181,-0.018,0,0,-0.1991,-0.1888,-0.1844,-0.1661,-0.1595,-0.1446,-0.1373,-0.1314,-0.1206,-0.0987,-0.082,-0.0729,-0.0606,-0.0397,-0.0317,-0.0236,-0.0324,-0.0221,-0.0371,-0.0514,-0.0533,-0.0551,-0.0647,0,0,0,0,0]},{"header":{"parameterUnit":"m.s-1","parameterCategory":2,"la1":30.2991,"la2":30.254,"lo1":-89.0895,"lo2":-89.0444,"dx":0.0017,"dy":0.0017,"nx":28,"ny":28,"refTime":"2022-12-03T09:00:00:Z","depth":"2","parameterNumber":3,"parameterNumberName":"V-component_of_CURRENTS"},"data":[0,0,0,0,0,0,0,0,0,0,0,0,0,0,0,0,0,0,0,0,0,0,0,0,0,0,0,0,0,0,0,0,0,0,0,0,0,0,0,0,0,0,0,0,0,0,0,0,0,0,0,0,0,0,0,0,0,0,0.0213,0.0213,0,0.0253,0.0254,0.0254,0.0245,0.0244,0.0243,0.0243,0.0282,0.0284,0.0285,0,0,0,0,0,0,0,0,0,0,0,0,0,0.0161,0.0162,0.0213,0.0213,0.0214,0.0253,0.0254,0.0254,0.0245,0.0244,0.0243,0.0242,0.0281,0.0283,0.0286,0,0,0,0,0,0,0,0,0,0,0,0,0,0.0191,0.0162,0.0213,0.0213,0.0214,0.0253,0.0254,0.0254,0.0245,0.0244,0.0243,0.0242,0.028,0.0283,0.0286,0.0328,0,0,0.0294,0.0295,0,0,0,0,0,0,0,0,0.0189,0.0193,0.0213,0.0213,0.0214,0.0242,0.025,0.0279,0.0246,0.0234,0.0242,0.0241,0.0269,0.0273,0.0284,0.0329,0.0331,0.0294,0.0296,0.0297,0.0298,0,0,0,0,0,0,0,0.0187,0.0191,0.0229,0.0213,0.0214,0.0223,0.0225,0.0255,0.0259,0.0235,0.0234,0.0238,0.0269,0.0281,0.0285,0.0332,0.0294,0.0297,0.0298,0.03,0.0367,0.0367,0,0,0,0,0,0,0.0181,0.019,0.0228,0.0231,0.0197,0.0224,0.0228,0.0235,0.0258,0.026,0.0239,0.0237,0.0277,0.0282,0.0286,0.0297,0.0297,0.03,0.0301,0.0366,0.0367,0.0367,0,0,0,0,0,0,0.018,0.0184,0.0227,0.021,0.0216,0.0226,0.0235,0.0236,0.0231,0.0261,0.0263,0.023,0.0276,0.0282,0.0292,0.03,0.0301,0.0303,0.0366,0.0366,0.0367,0.0345,0,0,0,0,0,0,0.0178,0.0183,0.0185,0.021,0.0217,0.0239,0.0236,0.0238,0.0236,0.0234,0.0255,0.0258,0.0276,0.0288,0.0295,0.0304,0.0306,0.0366,0.0366,0.0367,0.0346,0.0345,0.0344,0,0,0,0,0,0.0176,0.0183,0.0185,0.0189,0.0219,0.0239,0.0244,0.0247,0.0236,0.0237,0.0243,0.0256,0.0295,0.029,0.0298,0.0308,0.0366,0.0366,0.0367,0.0346,0.0345,0.0344,0,0,0,0,0,0,0.0166,0.0184,0.0186,0.0199,0.0212,0.0237,0.0239,0.024,0.0247,0.0237,0.0259,0.0263,0.0276,0.0294,0.0289,0.0328,0.0333,0.0335,0.0315,0.0314,0.0313,0.0315,0.0308,0,0,0,0,0,0.0165,0.017,0.0191,0.02,0.0204,0.0219,0.0225,0.0226,0.0237,0.0237,0.0251,0.0267,0.029,0.0299,0.0321,0.0345,0.0357,0.0356,0.0355,0.0354,0.0361,0.0375,0.0376,0.0368,0.0368,0.0368,0,0,0.0163,0.0174,0.0176,0.0197,0.0206,0.0218,0.0219,0.0223,0.0231,0.0243,0.0251,0.0263,0.0294,0.0315,0.0323,0.0328,0.0363,0.0355,0.0354,0.0361,0.0375,0.0376,0.0377,0.0368,0.0368,0.0368,0,0,0.0159,0.017,0.017,0.0183,0.0193,0.0207,0.0203,0.0217,0.022,0.0234,0.0242,0.0257,0.0289,0.0314,0.0332,0.0342,0.0354,0.0343,0.0345,0.0357,0.0358,0.0359,0.0371,0.0373,0.0345,0.0345,0.0345,0,0.0151,0.0158,0.0174,0.0181,0.0187,0.0198,0.02,0.0218,0.0231,0.0236,0.023,0.0272,0.0296,0.0331,0.0332,0.0343,0.0343,0.0345,0.0356,0.0357,0.0358,0.037,0.0373,0.0344,0.0345,0.0345,0.0345,0,0.0147,0.0154,0.0156,0.0168,0.0183,0.0183,0.0208,0.0214,0.0215,0.0232,0.025,0.0279,0.0305,0.0316,0.033,0.0353,0.0348,0.0349,0.0357,0.0357,0.037,0.0373,0.0343,0.0343,0.0344,0.0344,0,0,0.0097,0.0143,0.0136,0.0142,0.0169,0.0175,0.0198,0.0217,0.0222,0.0242,0.0253,0.0297,0.0302,0.0323,0.034,0.0356,0.0368,0.0351,0.0352,0.036,0.0386,0.0405,0.0411,0.0359,0.0359,0.0359,0.039,0,0.0074,0.0084,0.0117,0.0122,0.0123,0.0156,0.0179,0.0202,0.0221,0.0238,0.0273,0.0292,0.031,0.0313,0.0334,0.0359,0.0375,0.0359,0.0388,0.0389,0.0404,0.0415,0.0318,0.0338,0.0393,0.0393,0.0394,0,0.003,0.0048,0.0049,0.0091,0.0095,0.0107,0.0129,0.0155,0.0199,0.0215,0.0244,0.0268,0.031,0.0313,0.0366,0.0347,0.0367,0.0385,0.0386,0.0417,0.0415,0.0348,0.0342,0.0399,0.0399,0.0398,0.0398,0,-0.0051,-0.0012,-0.0015,-0.0003,0.0054,0.0059,0.0088,0.0133,0.0154,0.0196,0.0214,0.0258,0.0287,0.0314,0.0373,0.0356,0.0425,0.0408,0.0446,0.0447,0.038,0.0375,0.044,0.044,0.0439,0.0439,0.0439,0,-0.0113,-0.0118,-0.0054,-0.0059,-0.0056,0.0004,0.0011,0.0049,0.0103,0.0143,0.0193,0.0247,0.0286,0.0339,0.0369,0.0432,0.0427,0.0455,0.0461,0.0371,0.0365,0.0431,0.0429,0.0441,0.044,0.044,0.044,0,-0.0214,-0.0172,-0.017,-0.0114,-0.0098,-0.0101,-0.0035,-0.0018,0.0045,0.0099,0.0114,0.0228,0.0322,0.0368,0.0432,0.044,0.0486,0.0507,0.0405,0.0399,0.0493,0.049,0.0534,0.0535,0.0536,0.0537,0.0538,0,-0.0264,-0.0275,-0.0229,-0.0225,-0.0203,-0.0182,-0.0158,-0.0074,-0.003,0.0112,0.0149,0.0259,0.0353,0.046,0.0465,0.05,0.0554,0.046,0.0422,0.0504,0.0505,0.0501,0.0497,0.0316,0.0314,0.0313,0.0313,0,-0.0357,-0.0344,-0.0334,-0.0326,-0.0308,-0.0261,-0.0203,-0.0167,-0.004,0.0033,0.0194,0.0277,0.0377,0.041,0.045,0.0457,0.0441,0.0443,0.055,0.032,0.0304,0.0303,0.0305,0.0303,0.0304,0.0305,0.0306,0.0306,-0.0431,-0.0447,-0.0435,-0.0425,-0.0392,-0.0319,-0.0264,-0.0177,-0.008,0.0025,0.0128,0.0229,0.0257,0.0285,0.0342,0.0393,0.0405,0.0389,0.0388,0.039,0.0372,0.0361,0.0367,0.0368,0.0369,0.037,0.0371,0,-0.0518,-0.052,-0.0525,-0.0486,-0.0447,-0.0401,-0.0274,-0.0217,-0.0087,-0.0039,0.0032,0.0039,0.0086,0.021,0.025,0.0271,0.0223,0.0309,0.0237,0.0244,0.0251,0.0224,0.018,0.0181,0.0181,0.0181,0,0,-0.0566,-0.0601,-0.0592,-0.0547,-0.0498,-0.0394,-0.0302,-0.0225,-0.0154,-0.0116,-0.0069,-0.0154,0.0056,0.003,0.0071,0.0165,0.0188,0.015,0.0281,0.0191,0.0197,0.026,0.0223,0,0,0,0,0]}],[{"header":{"parameterUnit":"m.s-1","parameterCategory":2,"la1":30.2991,"la2":30.254,"lo1":-89.0895,"lo2":-89.0444,"dx":0.0017,"dy":0.0017,"nx":28,"ny":28,"refTime":"2022-12-03T09:00:00:Z","depth":"4","parameterNumber":2,"parameterNumberName":"U-component_of_CURRENTS"},"data":[0,0,0,0,0,0,0,0,0,0,0,0,0,0,0,0,0,0,0,0,0,0,0,0,0,0,0,0,0,0,0,0,0,0,0,0,0,0,0,0,0,0,0,0,0,0,0,0,0,0,0,0,0,0,0,0,0,0,-0.0604,-0.0605,0,-0.065,-0.0651,-0.0651,-0.0681,-0.0681,-0.0681,-0.0681,-0.0751,-0.0753,-0.0755,0,0,0,0,0,0,0,0,0,0,0,0,0,-0.0544,-0.0545,-0.0604,-0.0605,-0.0605,-0.065,-0.0651,-0.0651,-0.0681,-0.0681,-0.0681,-0.0681,-0.0751,-0.0753,-0.0755,0,0,0,0,0,0,0,0,0,0,0,0,0,-0.0579,-0.0545,-0.0604,-0.0624,-0.0626,-0.065,-0.0651,-0.0652,-0.0681,-0.0681,-0.0681,-0.0681,-0.075,-0.0752,-0.0755,-0.0771,0,0,-0.0764,-0.0765,0,0,0,0,0,0,0,0,-0.0577,-0.0582,-0.0621,-0.0623,-0.0625,-0.0658,-0.0655,-0.0692,-0.0681,-0.0662,-0.0681,-0.0681,-0.0721,-0.0726,-0.0737,-0.0774,-0.0777,-0.0764,-0.0765,-0.0767,-0.0767,0,0,0,0,0,0,0,-0.0575,-0.058,-0.0624,-0.0621,-0.0624,-0.0631,-0.0636,-0.0662,-0.0692,-0.0663,-0.0665,-0.0668,-0.0723,-0.0734,-0.0739,-0.0778,-0.0764,-0.0766,-0.0768,-0.0769,-0.0852,-0.0853,0,0,0,0,0,0,-0.0566,-0.0578,-0.0622,-0.0625,-0.0599,-0.0632,-0.0638,-0.0649,-0.0691,-0.0697,-0.0668,-0.0669,-0.0729,-0.0735,-0.0741,-0.0816,-0.0767,-0.0769,-0.0771,-0.0852,-0.0853,-0.0853,0,0,0,0,0,0,-0.0565,-0.057,-0.0621,-0.0601,-0.0607,-0.0633,-0.0645,-0.065,-0.0677,-0.0694,-0.0701,-0.0691,-0.073,-0.0737,-0.077,-0.0816,-0.077,-0.0773,-0.0851,-0.0852,-0.0853,-0.093,0,0,0,0,0,0,-0.0563,-0.057,-0.0582,-0.06,-0.0608,-0.0637,-0.0645,-0.065,-0.0677,-0.0679,-0.0717,-0.0722,-0.073,-0.0765,-0.0772,-0.0819,-0.0775,-0.0851,-0.0852,-0.0853,-0.0927,-0.0934,-0.0939,0,0,0,0,0,-0.0561,-0.057,-0.0583,-0.0589,-0.0623,-0.0637,-0.0643,-0.0661,-0.0678,-0.0688,-0.0712,-0.0722,-0.0777,-0.0768,-0.0776,-0.0825,-0.085,-0.0851,-0.0853,-0.0924,-0.0932,-0.0939,0,0,0,0,0,0,-0.0561,-0.0575,-0.0589,-0.0606,-0.0624,-0.0642,-0.0655,-0.0673,-0.0701,-0.0717,-0.0731,-0.0738,-0.0802,-0.0784,-0.0773,-0.0847,-0.0815,-0.0818,-0.0867,-0.0875,-0.0881,-0.0843,-0.0777,0,0,0,0,0,-0.0564,-0.0566,-0.0591,-0.0603,-0.0617,-0.0643,-0.0656,-0.0677,-0.0699,-0.0713,-0.073,-0.0757,-0.081,-0.0816,-0.0855,-0.0878,-0.0849,-0.0911,-0.0917,-0.0923,-0.0895,-0.0922,-0.0929,-0.0857,-0.0857,-0.0857,0,0,-0.0564,-0.0574,-0.0575,-0.0602,-0.0621,-0.0643,-0.0652,-0.0682,-0.0698,-0.0717,-0.0744,-0.0798,-0.0828,-0.0877,-0.0899,-0.0864,-0.0921,-0.0924,-0.0929,-0.0897,-0.0924,-0.0931,-0.0937,-0.0858,-0.0858,-0.0858,0,0,-0.0557,-0.0581,-0.0582,-0.0603,-0.0636,-0.0654,-0.0667,-0.0698,-0.0711,-0.0757,-0.0787,-0.0832,-0.0897,-0.0905,-0.0929,-0.0975,-0.0978,-0.1019,-0.0998,-0.1028,-0.1034,-0.1039,-0.0985,-0.0985,-0.0994,-0.0994,-0.0994,0,-0.0562,-0.057,-0.0586,-0.0603,-0.062,-0.0661,-0.068,-0.0702,-0.0736,-0.0751,-0.0774,-0.088,-0.0901,-0.0953,-0.0975,-0.099,-0.0994,-0.0979,-0.1037,-0.1042,-0.1046,-0.0989,-0.0988,-0.0998,-0.0997,-0.0997,-0.0996,0,-0.0557,-0.0576,-0.0583,-0.0613,-0.0634,-0.066,-0.0693,-0.0719,-0.0761,-0.079,-0.0867,-0.0901,-0.095,-0.0986,-0.1003,-0.105,-0.104,-0.1072,-0.1023,-0.1058,-0.0995,-0.0993,-0.1003,-0.1002,-0.1001,-0.1,0,0,-0.0544,-0.057,-0.058,-0.059,-0.0647,-0.066,-0.0697,-0.0734,-0.0759,-0.0823,-0.085,-0.0943,-0.0977,-0.0998,-0.1031,-0.1038,-0.1065,-0.107,-0.107,-0.102,-0.1096,-0.1002,-0.0989,-0.115,-0.115,-0.1151,-0.1032,0,-0.0541,-0.0558,-0.0578,-0.0606,-0.0621,-0.0669,-0.0692,-0.074,-0.0785,-0.0818,-0.0876,-0.094,-0.0978,-0.1025,-0.1046,-0.1087,-0.1067,-0.109,-0.1062,-0.1058,-0.0977,-0.0986,-0.1153,-0.103,-0.1029,-0.1028,-0.1028,0,-0.0538,-0.0548,-0.0568,-0.0596,-0.061,-0.0641,-0.069,-0.0714,-0.0777,-0.0822,-0.0891,-0.0947,-0.0981,-0.1014,-0.1049,-0.1086,-0.1081,-0.1087,-0.1084,-0.096,-0.0961,-0.0991,-0.1023,-0.1023,-0.1023,-0.1024,-0.1024,0,-0.0508,-0.0541,-0.0549,-0.0565,-0.0611,-0.0636,-0.0669,-0.073,-0.075,-0.0822,-0.0861,-0.0931,-0.0972,-0.1008,-0.1018,-0.1066,-0.1026,-0.1085,-0.0966,-0.0956,-0.1043,-0.1039,-0.1073,-0.1074,-0.1074,-0.1074,-0.1075,0,-0.0485,-0.0496,-0.0542,-0.0551,-0.0569,-0.062,-0.0654,-0.0691,-0.0756,-0.0764,-0.086,-0.0873,-0.0993,-0.099,-0.0998,-0.0948,-0.1005,-0.0935,-0.0928,-0.1072,-0.1073,-0.1039,-0.1036,-0.107,-0.1071,-0.1072,-0.1072,0,-0.0444,-0.0469,-0.0488,-0.0544,-0.0552,-0.0577,-0.0639,-0.0668,-0.0732,-0.0739,-0.0768,-0.0855,-0.0859,-0.0891,-0.0914,-0.0903,-0.0867,-0.0822,-0.0894,-0.0897,-0.0776,-0.0779,-0.0695,-0.0691,-0.0687,-0.0684,-0.0682,0,-0.0423,-0.0429,-0.0477,-0.0488,-0.0515,-0.0556,-0.0582,-0.0652,-0.0674,-0.0694,-0.0689,-0.0719,-0.0752,-0.069,-0.075,-0.0712,-0.0719,-0.0681,-0.0799,-0.074,-0.0742,-0.0751,-0.0758,-0.0676,-0.0675,-0.0674,-0.0674,0,-0.0392,-0.042,-0.0435,-0.046,-0.0488,-0.0498,-0.0536,-0.0538,-0.0582,-0.0638,-0.0605,-0.0603,-0.0584,-0.0628,-0.0591,-0.0574,-0.0715,-0.0646,-0.0655,-0.0766,-0.0717,-0.0724,-0.0736,-0.0661,-0.0663,-0.0664,-0.0665,0,-0.0385,-0.039,-0.042,-0.0432,-0.0447,-0.0426,-0.0453,-0.0469,-0.049,-0.0514,-0.0484,-0.0495,-0.055,-0.0546,-0.0501,-0.0489,-0.052,-0.0537,-0.0553,-0.0567,-0.0589,-0.0512,-0.0364,0,0,0,0,0,-0.0377,-0.037,-0.0387,-0.0382,-0.0391,-0.0386,-0.0411,-0.0445,-0.0461,-0.0419,-0.0455,-0.042,-0.0399,-0.0432,-0.04,-0.0446,-0.0515,-0.0407,-0.0542,-0.0595,-0.0608,-0.0652,0,0,0,0,0,0,-0.0365,-0.0378,-0.0375,-0.0333,-0.031,-0.0303,-0.0305,-0.0318,-0.032,-0.0345,-0.0358,-0.0384,-0.0399,-0.04,-0.0386,-0.0389,-0.0464,-0.0426,-0.0425,-0.0587,-0.0599,-0.061,-0.066,0,0,0,0,0]},{"header":{"parameterUnit":"m.s-1","parameterCategory":2,"la1":30.2991,"la2":30.254,"lo1":-89.0895,"lo2":-89.0444,"dx":0.0017,"dy":0.0017,"nx":28,"ny":28,"refTime":"2022-12-03T09:00:00:Z","depth":"4","parameterNumber":3,"parameterNumberName":"V-component_of_CURRENTS"},"data":[0,0,0,0,0,0,0,0,0,0,0,0,0,0,0,0,0,0,0,0,0,0,0,0,0,0,0,0,0,0,0,0,0,0,0,0,0,0,0,0,0,0,0,0,0,0,0,0,0,0,0,0,0,0,0,0,0,0,-0.0532,-0.0533,0,-0.058,-0.0581,-0.0582,-0.0585,-0.0585,-0.0584,-0.0584,-0.0611,-0.0612,-0.0614,0,0,0,0,0,0,0,0,0,0,0,0,0,-0.0477,-0.0478,-0.0532,-0.0533,-0.0533,-0.058,-0.0581,-0.0582,-0.0586,-0.0585,-0.0584,-0.0583,-0.0611,-0.0612,-0.0614,0,0,0,0,0,0,0,0,0,0,0,0,0,-0.0511,-0.0478,-0.0532,-0.0541,-0.0542,-0.058,-0.0581,-0.0582,-0.0586,-0.0585,-0.0584,-0.0583,-0.061,-0.0612,-0.0614,-0.0643,0,0,-0.062,-0.0621,0,0,0,0,0,0,0,0,-0.0509,-0.0513,-0.0539,-0.054,-0.0541,-0.0575,-0.0571,-0.0601,-0.0586,-0.057,-0.0584,-0.0583,-0.0598,-0.06,-0.0613,-0.0645,-0.0646,-0.062,-0.0621,-0.0622,-0.0623,0,0,0,0,0,0,0,-0.0507,-0.0511,-0.0552,-0.0539,-0.0541,-0.0553,-0.0557,-0.0577,-0.0588,-0.0571,-0.0571,-0.0576,-0.0598,-0.0611,-0.0613,-0.0646,-0.062,-0.0622,-0.0623,-0.0624,-0.0724,-0.0726,0,0,0,0,0,0,-0.0499,-0.0509,-0.0551,-0.0553,-0.0522,-0.0554,-0.0559,-0.0566,-0.0588,-0.0591,-0.0576,-0.0576,-0.0608,-0.0611,-0.0614,-0.0676,-0.0622,-0.0624,-0.0625,-0.0723,-0.0725,-0.0726,0,0,0,0,0,0,-0.0497,-0.0502,-0.0549,-0.0531,-0.0538,-0.0556,-0.0564,-0.0567,-0.059,-0.0593,-0.0595,-0.0596,-0.0608,-0.0612,-0.0646,-0.0676,-0.0625,-0.0626,-0.0721,-0.0723,-0.0725,-0.0784,0,0,0,0,0,0,-0.0496,-0.0501,-0.0514,-0.0531,-0.0539,-0.0583,-0.0565,-0.0569,-0.0593,-0.0593,-0.0611,-0.0611,-0.0607,-0.0643,-0.0648,-0.0678,-0.0628,-0.0719,-0.0722,-0.0725,-0.078,-0.0788,-0.0794,0,0,0,0,0,-0.0494,-0.0518,-0.0515,-0.052,-0.0552,-0.0584,-0.059,-0.0599,-0.0595,-0.0614,-0.0625,-0.0611,-0.0664,-0.0646,-0.0651,-0.0682,-0.0718,-0.0721,-0.0724,-0.0776,-0.0786,-0.0794,0,0,0,0,0,0,-0.0507,-0.0521,-0.0518,-0.0546,-0.0566,-0.0584,-0.0609,-0.0611,-0.0636,-0.0639,-0.0634,-0.0638,-0.0686,-0.0675,-0.0655,-0.072,-0.0688,-0.0693,-0.0726,-0.0735,-0.0742,-0.0708,-0.063,0,0,0,0,0,-0.0514,-0.0535,-0.0546,-0.0573,-0.0583,-0.0597,-0.0614,-0.0621,-0.064,-0.0651,-0.0666,-0.068,-0.0705,-0.071,-0.0737,-0.0767,-0.0733,-0.079,-0.0797,-0.0803,-0.078,-0.0769,-0.0772,-0.0737,-0.0737,-0.0737,0,0,-0.0533,-0.0539,-0.0555,-0.0577,-0.0594,-0.0614,-0.0606,-0.0641,-0.0657,-0.0651,-0.0693,-0.0719,-0.0724,-0.0766,-0.0784,-0.0756,-0.0797,-0.0807,-0.0813,-0.0785,-0.0773,-0.0775,-0.0778,-0.074,-0.0739,-0.0739,0,0,-0.0564,-0.0581,-0.0599,-0.0613,-0.0635,-0.0646,-0.0657,-0.0687,-0.07,-0.0747,-0.0746,-0.0776,-0.0825,-0.082,-0.0824,-0.0882,-0.085,-0.0908,-0.0903,-0.0894,-0.0896,-0.0897,-0.0861,-0.0859,-0.0895,-0.0895,-0.0895,0,-0.0575,-0.0597,-0.0613,-0.0626,-0.064,-0.0659,-0.0679,-0.0701,-0.074,-0.0751,-0.0769,-0.0828,-0.0842,-0.0854,-0.088,-0.0896,-0.088,-0.087,-0.0901,-0.0901,-0.0901,-0.0864,-0.0861,-0.0899,-0.0898,-0.0898,-0.0898,0,-0.0608,-0.0627,-0.0645,-0.066,-0.0684,-0.0712,-0.0731,-0.0762,-0.0791,-0.0807,-0.0854,-0.0877,-0.0895,-0.0922,-0.0922,-0.0934,-0.0919,-0.0925,-0.0873,-0.0908,-0.0867,-0.0863,-0.0903,-0.0902,-0.0901,-0.09,0,0,-0.0615,-0.0654,-0.0659,-0.0668,-0.0701,-0.0723,-0.0756,-0.0783,-0.0796,-0.085,-0.0864,-0.0918,-0.0926,-0.0929,-0.0935,-0.0925,-0.0928,-0.0928,-0.0926,-0.0881,-0.0893,-0.0835,-0.0823,-0.0949,-0.0949,-0.0948,-0.0865,0,-0.0626,-0.0651,-0.0673,-0.071,-0.0725,-0.0751,-0.0777,-0.0807,-0.0839,-0.0864,-0.088,-0.0917,-0.0927,-0.0949,-0.094,-0.0944,-0.0917,-0.0948,-0.0874,-0.087,-0.0806,-0.0817,-0.0947,-0.0861,-0.086,-0.0859,-0.0858,0,-0.0641,-0.0653,-0.0685,-0.0719,-0.0729,-0.0761,-0.0795,-0.0819,-0.0848,-0.0875,-0.0894,-0.0915,-0.0916,-0.0929,-0.0901,-0.0927,-0.0904,-0.0895,-0.0892,-0.0804,-0.0802,-0.0819,-0.0848,-0.0849,-0.085,-0.0851,-0.0851,0,-0.0625,-0.0662,-0.0687,-0.07,-0.0743,-0.0768,-0.0796,-0.0829,-0.0848,-0.0879,-0.0901,-0.0904,-0.0919,-0.0896,-0.0875,-0.0901,-0.083,-0.0859,-0.0768,-0.0762,-0.0813,-0.0812,-0.0814,-0.0815,-0.0815,-0.0815,-0.0815,0,-0.0616,-0.0638,-0.0688,-0.0698,-0.0729,-0.0767,-0.0802,-0.0824,-0.0861,-0.0867,-0.0902,-0.0897,-0.092,-0.0886,-0.0858,-0.0782,-0.0809,-0.0748,-0.0735,-0.0842,-0.0845,-0.0809,-0.081,-0.0812,-0.0812,-0.0813,-0.0814,0,-0.0595,-0.0625,-0.0659,-0.0709,-0.0723,-0.0752,-0.0809,-0.0832,-0.0866,-0.087,-0.0886,-0.0906,-0.086,-0.0834,-0.0791,-0.0758,-0.0695,-0.0654,-0.0737,-0.0734,-0.0638,-0.0643,-0.0555,-0.0552,-0.0549,-0.0547,-0.0546,0,-0.0587,-0.06,-0.0659,-0.0682,-0.0711,-0.0755,-0.0784,-0.0831,-0.0844,-0.0851,-0.0842,-0.0827,-0.0816,-0.07,-0.0685,-0.0598,-0.0592,-0.056,-0.0627,-0.0613,-0.061,-0.0619,-0.0627,-0.0542,-0.0541,-0.0541,-0.054,0,-0.0563,-0.0596,-0.062,-0.0662,-0.0704,-0.0743,-0.0777,-0.078,-0.0808,-0.0836,-0.0792,-0.0759,-0.0693,-0.0656,-0.0584,-0.0527,-0.0593,-0.0536,-0.0542,-0.0604,-0.0597,-0.0599,-0.0609,-0.0532,-0.0533,-0.0534,-0.0534,0,-0.0551,-0.0567,-0.0603,-0.0639,-0.0689,-0.0718,-0.0741,-0.0747,-0.0761,-0.0757,-0.0729,-0.0689,-0.0687,-0.0612,-0.0538,-0.0485,-0.0491,-0.0498,-0.0507,-0.0515,-0.0539,-0.0527,-0.0411,0,0,0,0,0,-0.0531,-0.0541,-0.0574,-0.0614,-0.0669,-0.0697,-0.0729,-0.0749,-0.0748,-0.0707,-0.072,-0.0648,-0.0569,-0.0554,-0.0486,-0.0501,-0.0484,-0.042,-0.0497,-0.0486,-0.0496,-0.0526,0,0,0,0,0,0,-0.0515,-0.054,-0.0556,-0.0588,-0.0617,-0.0668,-0.0694,-0.07,-0.0675,-0.0671,-0.0632,-0.0625,-0.0554,-0.0597,-0.048,-0.0468,-0.0507,-0.0393,-0.0391,-0.0481,-0.049,-0.0497,-0.0532,0,0,0,0,0]}]]